Weather History for KPSK - March, 2014

Change the Weather History Date:

Sunday, March 9, 2014

  Actual Average (KBCB) Record (KBCB)
Temperature  
Mean Temperature 46 °F 39 °F  
Max Temperature 54 °F 51 °F 79 °F (2000)
Min Temperature 39 °F 28 °F 6 °F (1996)
Degree Days  
Heating Degree Days 18 26  
Month to date heating degree days 240  
Since 1 July heating degree days 4288  
Cooling Degree Days 0 0  
Month to date cooling degree days 0  
Year to date cooling degree days 0  
Moisture  
Dew Point 29 °F    
Average Humidity 52    
Maximum Humidity 69    
Minimum Humidity 29    
Precipitation  
Precipitation 0.00 in 0.11 in 0.85 in (1976)
Month to date precipitation 0.94  
Year to date precipitation 6.83  
Snow  
Snow 0.00 in - - ()
Month to date snowfall  
Since 1 July snowfall  
Snow Depth -    
Sea Level Pressure  
Sea Level Pressure 30.06 in    
Wind  
Wind Speed 9 mph (WNW)    
Max Wind Speed 16 mph    
Max Gust Speed 26 mph    
Visibility 10 miles    
Events      
T = Trace of Precipitation, MM = Missing Value Source: NWS Daily Summary

Daily Weather History Graph

Daily Weather History Graph

Search for Another Location

Airport or City:

Trip Planner

Search our weather history database for the weather conditions in past years. The results will help you decide how hot, cold, wet, or windy it might be!

Date:

Astronomy

Mar. 09, 2014 Rise Set
Actual Time 7:42 AM EDT 7:24 PM EDT
Civil Twilight 7:16 AM EDT 7:50 PM EDT
Nautical Twilight 6:46 AM EDT 8:20 PM EDT
Astronomical Twilight 6:16 AM EDT 8:50 PM EDT
Moon 1:21 PM EDT (3/9) 3:01 AM EDT (3/9)
Length of Visible Light 12h 33m
Length of Day
11h 42m
First Quarter, 61% of the Moon is Illuminated
Mar 9
First Quarter
Mar 16
Full
Mar 23
Last Quarter
Mar 30
New
Apr 7
First Quarter

Hourly Weather History & Observations

Time (EDT) Temp. Windchill Dew Point Humidity Pressure Visibility Wind Dir Wind Speed Gust Speed Precip Events Conditions
12:15 AM 47.1 °F - 30.0 °F 51% 30.03 in 10.0 mi West 6.9 mph - N/A   Clear
12:35 AM 47.3 °F - 31.1 °F 53% 30.02 in 10.0 mi WNW 10.4 mph - N/A   Clear
12:55 AM 47.7 °F - 31.8 °F 54% 30.02 in 10.0 mi West 9.2 mph - N/A   Scattered Clouds
1:15 AM 48.0 °F - 31.6 °F 53% 30.02 in 10.0 mi WNW 8.1 mph - N/A   Overcast
1:30 AM 48.0 °F - 32.0 °F 54% 30.02 in 10.0 mi WNW 11.5 mph 16.1 mph N/A   Overcast
1:55 AM 48.6 °F - 32.0 °F 53% 30.01 in 10.0 mi WNW 6.9 mph - N/A   Overcast
3:15 AM 48.4 °F - 32.4 °F 54% 30.01 in 10.0 mi West 6.9 mph 10.4 mph N/A   Overcast
3:35 AM 48.2 °F - 32.9 °F 55% 30.00 in 10.0 mi West 8.1 mph 18.4 mph N/A   Overcast
3:55 AM 47.8 °F - 32.9 °F 56% 30.00 in 10.0 mi WNW 11.5 mph - N/A   Overcast
4:15 AM 48.2 °F - 33.6 °F 57% 30.00 in 10.0 mi West 8.1 mph - N/A   Overcast
4:35 AM 47.7 °F - 34.0 °F 59% 30.00 in 10.0 mi West 6.9 mph 17.3 mph N/A   Overcast
4:55 AM 48.2 °F - 34.7 °F 60% 30.00 in 10.0 mi West 6.9 mph - N/A   Overcast
5:15 AM 47.7 °F - 35.6 °F 63% 30.01 in 10.0 mi West 6.9 mph - N/A   Overcast
5:35 AM 47.3 °F - 36.1 °F 65% 30.01 in 10.0 mi NNW 10.4 mph 19.6 mph N/A   Overcast
5:55 AM 46.8 °F - 36.9 °F 68% 30.02 in 10.0 mi NW 9.2 mph - N/A   Overcast
6:15 AM 46.4 °F 41.1 °F 36.7 °F 69% 30.03 in 10.0 mi WNW 11.5 mph 20.7 mph N/A   Overcast
6:35 AM 46.0 °F 41.9 °F 36.5 °F 69% 30.03 in 10.0 mi NW 8.1 mph 20.7 mph N/A   Overcast
6:55 AM 45.9 °F 41.2 °F 36.1 °F 69% 30.04 in 10.0 mi NW 9.2 mph 17.3 mph N/A   Overcast
7:10 AM 45.7 °F 42.7 °F 35.6 °F 68% 30.05 in 10.0 mi NW 5.8 mph 10.4 mph N/A   Overcast
7:35 AM 45.5 °F 39.9 °F 35.6 °F 68% 30.06 in 10.0 mi NW 11.5 mph - N/A   Overcast
7:55 AM 45.5 °F 40.3 °F 34.9 °F 66% 30.06 in 10.0 mi NNW 10.4 mph 23.0 mph N/A   Overcast
8:15 AM 45.3 °F 39.3 °F 34.7 °F 66% 30.07 in 10.0 mi WNW 12.7 mph 18.4 mph N/A   Overcast
8:35 AM 44.8 °F 38.3 °F 34.7 °F 68% 30.08 in 10.0 mi WNW 13.8 mph 19.6 mph N/A   Overcast
8:55 AM 44.4 °F 38.6 °F 34.2 °F 67% 30.08 in 10.0 mi WNW 11.5 mph 17.3 mph N/A   Overcast
9:15 AM 44.2 °F 38.0 °F 34.5 °F 69% 30.09 in 10.0 mi WNW 12.7 mph 20.7 mph N/A   Overcast
9:35 AM 44.2 °F 37.0 °F 34.7 °F 69% 30.10 in 10.0 mi WNW 16.1 mph 19.6 mph N/A   Overcast
9:55 AM 44.6 °F 38.1 °F 34.9 °F 69% 30.10 in 10.0 mi NW 13.8 mph 17.3 mph N/A   Overcast
10:15 AM 45.9 °F 39.7 °F 35.4 °F 67% 30.10 in 10.0 mi West 13.8 mph 17.3 mph N/A   Overcast
10:35 AM 44.6 °F 38.4 °F 33.6 °F 65% 30.10 in 7.0 mi NW 12.7 mph 20.7 mph N/A   Overcast
10:55 AM 45.0 °F 38.9 °F 33.6 °F 64% 30.11 in 7.0 mi NW 12.7 mph - N/A   Overcast
11:15 AM 45.1 °F 39.1 °F 32.7 °F 62% 30.11 in 7.0 mi WNW 12.7 mph 18.4 mph N/A   Mostly Cloudy
11:35 AM 45.5 °F 39.2 °F 32.5 °F 61% 30.12 in 7.0 mi WNW 13.8 mph 19.6 mph N/A   Scattered Clouds
11:55 AM 46.0 °F 39.3 °F 32.0 °F 58% 30.12 in 7.0 mi WNW 16.1 mph 26.5 mph N/A   Clear
12:15 PM 46.4 °F 40.1 °F 32.0 °F 57% 30.12 in 7.0 mi WNW 15.0 mph - N/A   Clear
12:35 PM 46.8 °F - 31.8 °F 56% 30.12 in 7.0 mi WNW 15.0 mph - N/A   Clear
12:55 PM 47.3 °F - 31.5 °F 54% 30.12 in 7.0 mi WNW 12.7 mph - N/A   Clear
1:15 PM 47.7 °F - 31.3 °F 53% 30.11 in 10.0 mi WNW 9.2 mph - N/A   Clear
1:35 PM 48.2 °F - 30.6 °F 51% 30.11 in 10.0 mi WNW 11.5 mph - N/A   Clear
1:55 PM 49.1 °F - 30.2 °F 48% 30.10 in 10.0 mi WNW 10.4 mph - N/A   Clear
2:15 PM 49.6 °F - 29.5 °F 46% 30.09 in 10.0 mi West 9.2 mph 17.3 mph N/A   Clear
2:35 PM 51.3 °F - 29.7 °F 44% 30.09 in 10.0 mi WNW 12.7 mph 16.1 mph N/A   Clear
2:55 PM 51.4 °F - 28.4 °F 41% 30.08 in 10.0 mi WNW 10.4 mph 16.1 mph N/A   Clear
3:15 PM 51.8 °F - 27.5 °F 39% 30.08 in 10.0 mi West 12.7 mph 17.3 mph N/A   Clear
3:35 PM 52.3 °F - 27.1 °F 38% 30.07 in 10.0 mi West 10.4 mph - N/A   Clear
3:55 PM 52.7 °F - 25.0 °F 34% 30.07 in 10.0 mi WNW 15.0 mph 18.4 mph N/A   Clear
4:15 PM 52.7 °F - 24.1 °F 33% 30.07 in 10.0 mi NW 12.7 mph 18.4 mph N/A   Clear
4:35 PM 53.2 °F - 25.3 °F 34% 30.06 in 10.0 mi WNW 11.5 mph - N/A   Clear
4:55 PM 53.6 °F - 24.1 °F 32% 30.06 in 10.0 mi WNW 13.8 mph 18.4 mph N/A   Clear
5:15 PM 53.8 °F - 25.3 °F 33% 30.06 in 10.0 mi West 8.1 mph - N/A   Clear
5:35 PM 54.5 °F - 22.8 °F 29% 30.05 in 10.0 mi West 11.5 mph 17.3 mph N/A   Clear
5:55 PM 53.8 °F - 23.2 °F 30% 30.04 in 10.0 mi West 8.1 mph - N/A   Clear
6:15 PM 53.6 °F - 22.8 °F 30% 30.03 in 10.0 mi WNW 9.2 mph - N/A   Clear
6:35 PM 53.1 °F - 23.2 °F 31% 30.03 in 10.0 mi West 8.1 mph - N/A   Clear
6:55 PM 52.0 °F - 23.0 °F 32% 30.04 in 10.0 mi WNW 9.2 mph - N/A   Clear
7:15 PM 49.6 °F - 23.0 °F 35% 30.04 in 10.0 mi West 6.9 mph - N/A   Clear
7:35 PM 49.5 °F - 22.6 °F 35% 30.05 in 10.0 mi WNW 10.4 mph - N/A   Clear
7:55 PM 48.6 °F - 23.0 °F 37% 30.05 in 10.0 mi WNW 9.2 mph - N/A   Clear
8:15 PM 48.6 °F - 23.9 °F 38% 30.04 in 10.0 mi WNW 11.5 mph - N/A   Clear
8:35 PM 47.7 °F - 24.4 °F 40% 30.06 in 10.0 mi WNW 8.1 mph - N/A   Clear
8:55 PM 45.0 °F 41.8 °F 24.4 °F 45% 30.05 in 10.0 mi West 5.8 mph - N/A   Clear
9:15 PM 43.5 °F 40.1 °F 24.8 °F 48% 30.06 in 10.0 mi WSW 5.8 mph - N/A   Clear
9:35 PM 43.9 °F 41.3 °F 23.9 °F 45% 30.06 in 10.0 mi West 4.6 mph - N/A   Clear
9:55 PM 43.5 °F 40.1 °F 25.0 °F 48% 30.07 in 10.0 mi West 5.8 mph - N/A   Clear
10:15 PM 43.0 °F 39.5 °F 25.5 °F 50% 30.06 in 10.0 mi West 5.8 mph - N/A   Clear
10:35 PM 41.5 °F 38.6 °F 25.5 °F 53% 30.06 in 10.0 mi West 4.6 mph - N/A   Clear
10:55 PM 40.6 °F 37.5 °F 25.0 °F 54% 30.05 in 10.0 mi West 4.6 mph - N/A   Clear
11:15 PM 39.9 °F 36.7 °F 24.1 °F 53% 30.04 in 10.0 mi WSW 4.6 mph - N/A   Clear
11:35 PM 40.3 °F 37.1 °F 24.4 °F 53% 30.03 in 10.0 mi SW 4.6 mph - N/A   Clear
11:55 PM 40.1 °F 36.9 °F 24.3 °F 53% 30.04 in 10.0 mi WSW 4.6 mph - N/A   Clear
12:15 AM 40.1 °F 34.7 °F 23.9 °F 52% 30.03 in 10.0 mi West 8.1 mph - N/A   Clear
12:35 AM 41.7 °F 38.8 °F 23.5 °F 49% 30.03 in 10.0 mi West 4.6 mph - N/A   Clear
12:55 AM 41.9 °F 39.0 °F 22.3 °F 46% 30.03 in 10.0 mi West 4.6 mph - N/A   Clear